EW6196 Weather Reports


Display with metric or nautical units.
time (UTC)temp
F
wind
direction
speed
MPH
gust
MPH
rain 1hr
in
rain 24hr
in
rain mn
in
humidity
%
barometer
mb
20260502235338 66 5 0.0 8.0 0.00 0.00 0.00 32 1009.4
20260502232336 66 5 0.0 4.0 0.00 0.00 0.00 31 1009.4
20260502225336 66 5 0.0 10.0 0.00 0.00 0.00 31 1009.7
20260502222336 66 5 0.0 12.0 0.00 0.00 0.00 30 1010.2
20260502215334 67 5 1.0 11.0 0.00 0.00 0.00 30 1010.4
20260502212335 68 5 1.0 9.0 0.00 0.00 0.00 29 1010.9
20260502205335 68 5 0.0 8.0 0.00 0.00 0.00 29 1011.5
20260502202332 66 5 1.0 11.0 0.00 0.00 0.00 30 1012.1
20260502195332 64 5 2.0 12.0 0.00 0.00 0.00 30 1012.8
20260502192332 64 5 0.0 8.0 0.00 0.00 0.00 29 1013.3
20260502185330 63 5 0.0 10.0 0.00 0.00 0.00 32 1013.8
20260502182330 61 5 0.0 11.0 0.00 0.00 0.00 32 1014.5
20260502162327 58 5 0.0 6.0 0.00 0.00 0.00 34 1016.3
20260502152328 55 5 1.0 12.0 0.00 0.00 0.00 37 1016.7
20260502150725 55 5 0.0 4.0 0.00 0.00 0.00 39 1016.9
20260502122321 38 5 0.0 0.0 0.00 0.00 0.00 77 1017.3
20260502115321 37 5 0.0 0.0 0.00 0.00 0.00 76 1017.3
20260502112322 36 5 0.0 0.0 0.00 0.00 0.00 76 1017.2
20260502105319 37 5 0.0 0.0 0.00 0.00 0.00 78 1017.1
20260502102318 37 5 0.0 0.0 0.00 0.00 0.00 74 1017.0
20260502065311 43 5 0.0 0.0 0.00 0.00 0.00 61 1017.2
20260502062311 43 5 0.0 2.0 0.00 0.00 0.00 55 1017.3
20260502055308 44 5 0.0 1.0 0.00 0.00 0.00 53 1017.4
20260502052309 44 5 0.0 0.0 0.00 0.00 0.00 51 1017.4
20260502045310 45 5 0.0 0.0 0.00 0.00 0.00 50 1017.2
20260502042308 45 5 0.0 0.0 0.00 0.00 0.00 48 1017.2
20260502035306 46 5 0.0 0.0 0.00 0.00 0.00 46 1017.2
20260502032305 47 5 0.0 0.0 0.00 0.00 0.00 44 1017.4
20260502025306 47 5 0.0 0.0 0.00 0.00 0.00 43 1017.3
20260502023634 47 5 0.0 0.0 0.00 0.00 0.00 44 1017.2
20260502020642 49 5 0.0 0.0 0.00 0.00 0.00 39 1017.0
20260502012258 51 5 0.0 0.0 0.00 0.00 0.00 33 1016.7
20260502005252 52 5 0.0 0.0 0.00 0.00 0.00 33 1016.7
20260502003632 53 5 0.0 3.0 0.00 0.00 0.00 31 1016.7